Location: Aalen
(48.8330°N, 10.1000°E)
Time: 21:27:01
(UTC+02:00)

Transit 2A - Pass Details

Date: 07 August 2021
Orbit: 594 x 964 km, 66.7° (Epoch: 27 September)

Event Time Altitude Azimuth Distance (km) Brightness Sun altitude
Rises 14:12:21 0° 325° (NW) 3,225 9.0 56.1°
Reaches altitude 10° 14:14:39 10° 327° (NNW) 2,352 8.4 55.9°
Maximum altitude 14:20:06 74° 52° (NE) 882 7.1 55.6°
Drops below altitude 10° 14:26:06 10° 138° (SE) 2,578 9.0 55.2°
Sets 14:28:43 0° 141° (SE) 3,558 9.6 55.0°
